User: anonymous   Login
Location: Asbacherhof
(48.8543°N, 10.7903°E)
Time: 08:53:35
(UTC+00:00)
Language:

ADEOS II - Orbit

View from above orbital plane
View from above orbital plane
View from above satellite
View from above satellite

Ground track
Ground track

The orbit data is extracted from the following two-line orbital elements,

1 27597U 02056A   22230.43117836  .00000182  00000-0  91541-4 0  9990
2 27597  98.6087 173.3829 0001225 129.0864 231.0426 14.27634904 24793
Epoch (UTC): 18 August 2022 10:20:53
Eccentricity: 0.0001225
inclination: 98.6087°
perigee height: 799 km
apogee height: 800 km
right ascension of ascending node: 173.3829°
argument of perigee: 129.0864°
revolutions per day: 14.27634904
mean anomaly at epoch: 231.0426°
orbit number at epoch: 2479

The dashed part of the orbit path shows where the satellite is in the earth's shadow,  

DLR